[[{"header":{"parameterUnit":"m.s-1","parameterCategory":1,"la1":30.2991,"la2":30.254,"lo1":-89.0895,"lo2":-89.0444,"dy":0.0017,"dx":0.0017,"nx":28,"ny":28,"refTime":"2025-02-05T09:00:00:Z","depth":0,"parameterNumber":2,"parameterNumberName":"U-component_of_WINDS"},"data":[0,0,0,0,0,0,0,0,0,0,0,0,0,0,0,0,0,0,0,0,0,0,0,0,0,0,0,0,0,0,0,0,0,0,0,0,0,0,0,0,0,0,0,0,0,0,0,0,0,0,0,0,0,0,0,0,0,0,-0.2948,-0.2947,0,-0.2887,-0.2887,-0.2886,-0.2861,-0.2861,-0.2861,-0.2861,-0.2796,-0.2794,-0.2793,0,0,0,0,0,0,0,0,0,0,0,0,0,-0.3039,-0.3038,-0.2948,-0.2947,-0.2947,-0.2887,-0.2887,-0.2886,-0.2861,-0.2861,-0.2861,-0.2861,-0.2797,-0.2795,-0.2792,0,0,0,0,0,0,0,0,0,0,0,0,0,-0.2991,-0.3037,-0.2948,-0.2927,-0.2925,-0.2888,-0.2887,-0.2886,-0.2861,-0.2861,-0.2861,-0.2861,-0.2798,-0.2795,-0.2792,-0.2771,0,0,-0.2784,-0.2782,0,0,0,0,0,0,0,0,-0.2994,-0.2988,-0.2931,-0.2928,-0.2926,-0.2882,-0.2895,-0.2847,-0.2861,-0.2885,-0.2861,-0.2861,-0.2824,-0.2819,-0.2808,-0.2768,-0.2765,-0.2783,-0.2782,-0.2781,-0.278,0,0,0,0,0,0,0,-0.2997,-0.299,-0.2924,-0.293,-0.2927,-0.2919,-0.2913,-0.2886,-0.2854,-0.2883,-0.2881,-0.2874,-0.2823,-0.281,-0.2806,-0.2764,-0.2783,-0.2781,-0.2779,-0.2778,-0.2703,-0.2703,0,0,0,0,0,0,-0.3005,-0.2993,-0.2926,-0.2922,-0.2961,-0.2918,-0.291,-0.2896,-0.2854,-0.2848,-0.2874,-0.2873,-0.2815,-0.2809,-0.2803,-0.2775,-0.2781,-0.2778,-0.2776,-0.2703,-0.2703,-0.2702,0,0,0,0,0,0,-0.3007,-0.2999,-0.2928,-0.2957,-0.2948,-0.2916,-0.29,-0.2894,-0.2882,-0.2848,-0.2842,-0.2867,-0.2815,-0.2807,-0.2779,-0.2773,-0.2777,-0.2774,-0.2704,-0.2703,-0.2703,-0.2719,0,0,0,0,0,0,-0.3009,-0.3,-0.2992,-0.2957,-0.2946,-0.2906,-0.2899,-0.2893,-0.2877,-0.2876,-0.284,-0.2834,-0.2814,-0.2783,-0.2776,-0.2769,-0.2772,-0.2704,-0.2703,-0.2703,-0.2719,-0.2719,-0.272,0,0,0,0,0,-0.3013,-0.2999,-0.2992,-0.2984,-0.2936,-0.2906,-0.2899,-0.2878,-0.2877,-0.2868,-0.2846,-0.2835,-0.2775,-0.2781,-0.2773,-0.2764,-0.2704,-0.2704,-0.2703,-0.2719,-0.2719,-0.272,0,0,0,0,0,0,-0.3033,-0.2994,-0.2986,-0.296,-0.2937,-0.2902,-0.2891,-0.2879,-0.2855,-0.2854,-0.2828,-0.282,-0.2794,-0.2776,-0.2784,-0.2741,-0.2738,-0.2736,-0.2753,-0.2753,-0.2754,-0.2758,-0.277,0,0,0,0,0,-0.3035,-0.3014,-0.2981,-0.2962,-0.295,-0.2923,-0.2908,-0.2894,-0.2868,-0.2858,-0.2834,-0.2808,-0.2783,-0.2767,-0.2743,-0.2716,-0.2708,-0.2706,-0.2707,-0.2707,-0.2705,-0.2689,-0.2688,-0.27,-0.27,-0.27,0,0,-0.3038,-0.3014,-0.3003,-0.2965,-0.2945,-0.2923,-0.2914,-0.2892,-0.2875,-0.2854,-0.2826,-0.2807,-0.2777,-0.275,-0.2736,-0.2734,-0.27,-0.2706,-0.2707,-0.2704,-0.2688,-0.2687,-0.2686,-0.27,-0.27,-0.27,0,0,-0.3032,-0.3013,-0.2994,-0.2974,-0.2944,-0.2926,-0.2921,-0.2888,-0.2875,-0.2846,-0.283,-0.2809,-0.2767,-0.2746,-0.273,-0.2715,-0.2703,-0.2708,-0.2709,-0.2693,-0.2692,-0.2691,-0.2685,-0.2684,-0.2706,-0.2706,-0.2706,0,-0.304,-0.3008,-0.2986,-0.2964,-0.2948,-0.2928,-0.2909,-0.289,-0.2853,-0.2842,-0.284,-0.2786,-0.2765,-0.2731,-0.2728,-0.2716,-0.2709,-0.2712,-0.2694,-0.2693,-0.2692,-0.2686,-0.2684,-0.2707,-0.2707,-0.2707,-0.2707,0,-0.3018,-0.2995,-0.2984,-0.2949,-0.2931,-0.2911,-0.2885,-0.2869,-0.2856,-0.2838,-0.2808,-0.2782,-0.2751,-0.2742,-0.2729,-0.2706,-0.2706,-0.27,-0.2696,-0.2692,-0.2685,-0.2683,-0.2708,-0.2708,-0.2707,-0.2707,0,0,-0.3024,-0.2977,-0.2973,-0.2957,-0.2922,-0.2904,-0.2882,-0.2852,-0.2839,-0.2814,-0.2794,-0.2759,-0.2752,-0.2734,-0.2718,-0.2705,-0.2694,-0.27,-0.2698,-0.2699,-0.2666,-0.2671,-0.2669,-0.2686,-0.2685,-0.2685,-0.2669,0,-0.3013,-0.2974,-0.2953,-0.2922,-0.2901,-0.2881,-0.2862,-0.2838,-0.282,-0.2798,-0.2777,-0.2752,-0.2746,-0.2735,-0.2721,-0.2698,-0.2687,-0.2699,-0.2666,-0.2665,-0.2674,-0.2666,-0.2671,-0.2657,-0.2666,-0.2666,-0.2665,0,-0.2996,-0.2971,-0.2938,-0.2905,-0.2895,-0.2878,-0.2849,-0.2829,-0.28,-0.2788,-0.2767,-0.2752,-0.2726,-0.2725,-0.269,-0.2699,-0.2684,-0.2671,-0.2669,-0.2665,-0.2665,-0.266,-0.2652,-0.2649,-0.2662,-0.2662,-0.2662,0,-0.3002,-0.2961,-0.2936,-0.2923,-0.2883,-0.2872,-0.2855,-0.2827,-0.281,-0.2784,-0.2773,-0.2744,-0.2728,-0.2706,-0.2682,-0.2684,-0.2649,-0.2646,-0.2637,-0.2637,-0.263,-0.263,-0.2618,-0.2621,-0.2621,-0.2621,-0.2621,0,-0.2992,-0.2973,-0.2939,-0.2923,-0.29,-0.2876,-0.2854,-0.2835,-0.281,-0.2789,-0.2771,-0.2752,-0.2722,-0.2699,-0.2681,-0.2653,-0.2647,-0.2635,-0.263,-0.2636,-0.2638,-0.2626,-0.2626,-0.2621,-0.2621,-0.2621,-0.2621,0,-0.2996,-0.2973,-0.2944,-0.2909,-0.2899,-0.2884,-0.2854,-0.2837,-0.2818,-0.2792,-0.2785,-0.2754,-0.2726,-0.27,-0.2663,-0.265,-0.2622,-0.2617,-0.2632,-0.2629,-0.2621,-0.2622,-0.26,-0.2596,-0.2603,-0.2603,-0.2603,0,-0.2991,-0.2976,-0.2939,-0.2925,-0.2908,-0.2885,-0.2867,-0.2843,-0.2825,-0.2791,-0.2779,-0.2749,-0.2725,-0.268,-0.2654,-0.2625,-0.2618,-0.2612,-0.2613,-0.262,-0.2617,-0.2618,-0.2616,-0.2612,-0.2612,-0.2612,-0.2613,0,-0.2985,-0.2974,-0.295,-0.2922,-0.2902,-0.2879,-0.2855,-0.2843,-0.2814,-0.2795,-0.2767,-0.2747,-0.2709,-0.268,-0.2648,-0.2629,-0.2615,-0.2612,-0.2609,-0.2614,-0.2624,-0.2618,-0.2632,-0.2613,-0.2613,-0.2613,-0.2613,-0.2613,-0.2984,-0.2969,-0.294,-0.2914,-0.2893,-0.2871,-0.2854,-0.2832,-0.2808,-0.2776,-0.2762,-0.2733,-0.2703,-0.2659,-0.264,-0.2616,-0.2613,-0.2608,-0.2607,-0.2606,-0.2606,-0.2628,-0.261,-0.261,-0.261,-0.261,-0.261,0,-0.2976,-0.2956,-0.2933,-0.2899,-0.2879,-0.2868,-0.2841,-0.2824,-0.2799,-0.2773,-0.2749,-0.2715,-0.2686,-0.2658,-0.2627,-0.2613,-0.2606,-0.2606,-0.2607,-0.2602,-0.2611,-0.2617,-0.2612,-0.2612,-0.2612,-0.2612,-0.2612,-0.2612,-0.2969,-0.2943,-0.2928,-0.2891,-0.2871,-0.2843,-0.2828,-0.2807,-0.2786,-0.2749,-0.2726,-0.2707,-0.268,-0.2647,-0.262,-0.2612,-0.2601,-0.2603,-0.2593,-0.2602,-0.2602,-0.2602,-0.2607,-0.2601,-0.2601,-0.2586,-0.2586,-0.2586]},{"header":{"parameterUnit":"m.s-1","parameterCategory":1,"la1":30.2991,"la2":30.254,"lo1":-89.0895,"lo2":-89.0444,"dy":0.0017,"dx":0.0017,"nx":28,"ny":28,"refTime":"2025-02-05T09:00:00:Z","depth":0,"parameterNumber":3,"parameterNumberName":"V-component_of_WINDS"},"data":[0,0,0,0,0,0,0,0,0,0,0,0,0,0,0,0,0,0,0,0,0,0,0,0,0,0,0,0,0,0,0,0,0,0,0,0,0,0,0,0,0,0,0,0,0,0,0,0,0,0,0,0,0,0,0,0,0,0,2.5249,2.525,0,2.5314,2.5315,2.5315,2.5319,2.5318,2.5317,2.5316,2.5384,2.5387,2.5389,0,0,0,0,0,0,0,0,0,0,0,0,0,2.5128,2.5131,2.5249,2.525,2.5251,2.5314,2.5315,2.5316,2.5319,2.5318,2.5317,2.5316,2.5383,2.5386,2.5389,0,0,0,0,0,0,0,0,0,0,0,0,0,2.5186,2.5131,2.5249,2.526,2.5261,2.5314,2.5315,2.5316,2.5319,2.5318,2.5317,2.5315,2.5382,2.5386,2.539,2.5436,0,0,2.5401,2.5403,0,0,0,0,0,0,0,0,2.5183,2.519,2.5257,2.5259,2.5261,2.5307,2.5297,2.5356,2.5319,2.5297,2.5316,2.5315,2.5359,2.5365,2.538,2.5439,2.5442,2.5402,2.5404,2.5406,2.5407,0,0,0,0,0,0,0,2.5179,2.5188,2.5275,2.5258,2.526,2.5262,2.5269,2.5308,2.5334,2.5299,2.5299,2.5307,2.536,2.5376,2.5381,2.5443,2.5402,2.5405,2.5407,2.5409,2.5545,2.5546,0,0,0,0,0,0,2.5172,2.5184,2.5273,2.5277,2.5218,2.5265,2.5272,2.5293,2.5334,2.5339,2.5308,2.5307,2.537,2.5377,2.5384,2.5442,2.5406,2.5409,2.5411,2.5543,2.5545,2.5546,0,0,0,0,0,0,2.517,2.518,2.527,2.5231,2.5242,2.5268,2.5291,2.5295,2.5311,2.534,2.5345,2.5319,2.537,2.5379,2.5423,2.5444,2.5411,2.5414,2.5542,2.5544,2.5546,2.5557,0,0,0,0,0,0,2.5166,2.5179,2.5197,2.5231,2.5244,2.5308,2.5293,2.5297,2.5317,2.5317,2.5352,2.5357,2.5369,2.5417,2.5427,2.5449,2.5417,2.554,2.5543,2.5545,2.5555,2.5559,2.5562,0,0,0,0,0,2.5162,2.5198,2.5198,2.5208,2.5267,2.5309,2.5317,2.533,2.5319,2.5337,2.5356,2.5356,2.544,2.5422,2.5433,2.5456,2.5539,2.5542,2.5545,2.5553,2.5558,2.5562,0,0,0,0,0,0,2.5166,2.5202,2.5203,2.5251,2.5277,2.5309,2.5333,2.5335,2.5365,2.5363,2.5378,2.5386,2.5431,2.5448,2.5427,2.5503,2.5488,2.5493,2.5491,2.5496,2.55,2.5495,2.542,0,0,0,0,0,2.5172,2.5203,2.5233,2.5273,2.5286,2.5307,2.5326,2.5334,2.5362,2.5373,2.5395,2.5422,2.5455,2.5476,2.5507,2.5557,2.5565,2.5578,2.5581,2.5585,2.5589,2.5617,2.5624,2.5556,2.5556,2.5556,0,0,2.5186,2.521,2.5228,2.5274,2.5295,2.5327,2.5316,2.5351,2.5375,2.5378,2.5422,2.5439,2.547,2.5518,2.5539,2.5533,2.561,2.5588,2.5591,2.5594,2.5621,2.5627,2.5633,2.5558,2.5558,2.5558,0,0,2.5228,2.5248,2.5283,2.5305,2.5337,2.535,2.5359,2.5391,2.5403,2.5447,2.545,2.5479,2.5534,2.5557,2.5576,2.5625,2.5627,2.5635,2.5656,2.5683,2.5688,2.5693,2.5712,2.5718,2.5639,2.5639,2.5639,0,2.5241,2.5289,2.5301,2.5336,2.5356,2.536,2.5396,2.5416,2.5457,2.5471,2.5463,2.5533,2.5554,2.5607,2.5619,2.5634,2.5644,2.5632,2.5686,2.5691,2.5696,2.5714,2.5721,2.564,2.564,2.564,2.564,0,2.5304,2.5338,2.5362,2.5401,2.5424,2.5459,2.5477,2.5499,2.5504,2.5519,2.5564,2.559,2.5627,2.564,2.5645,2.5694,2.5689,2.5683,2.5669,2.5703,2.572,2.5727,2.5642,2.5641,2.5641,2.5641,0,0,2.5351,2.5396,2.5405,2.5423,2.5458,2.5485,2.552,2.5556,2.5574,2.5602,2.5633,2.5679,2.5675,2.5696,2.5704,2.5728,2.5766,2.572,2.5721,2.5728,2.5822,2.5827,2.5834,2.5767,2.5768,2.5769,2.582,0,2.5398,2.5461,2.5472,2.5527,2.5559,2.5562,2.5593,2.5618,2.5633,2.5662,2.5678,2.5711,2.5702,2.5715,2.5738,2.5757,2.5786,2.5753,2.5796,2.5798,2.579,2.5843,2.5848,2.5895,2.5826,2.5827,2.5828,0,2.5461,2.549,2.5548,2.5579,2.5593,2.562,2.5654,2.5681,2.571,2.5719,2.5742,2.5748,2.5785,2.5768,2.582,2.5798,2.5816,2.5828,2.583,2.5835,2.5816,2.5851,2.591,2.5917,2.5839,2.5838,2.5837,0,2.5491,2.5544,2.5586,2.5601,2.5638,2.5658,2.5674,2.5701,2.5722,2.5752,2.5765,2.5799,2.5817,2.5843,2.5858,2.5844,2.5909,2.5893,2.5918,2.5918,2.5933,2.5932,2.5997,2.5943,2.5943,2.5943,2.5942,0,2.5542,2.5578,2.56,2.5626,2.5666,2.5679,2.5718,2.5735,2.5759,2.5788,2.5793,2.582,2.5837,2.5867,2.5879,2.5921,2.5929,2.5937,2.594,2.5938,2.5937,2.5951,2.5949,2.5944,2.5944,2.5944,2.5943,0,2.5583,2.5599,2.5645,2.5676,2.5685,2.5713,2.574,2.5766,2.578,2.5817,2.5826,2.5849,2.5884,2.5901,2.5945,2.5953,2.6,2.6001,2.5991,2.5992,2.6017,2.6015,2.6094,2.6105,2.6043,2.6043,2.6044,0,2.5616,2.5643,2.5677,2.5697,2.5714,2.5746,2.5767,2.578,2.5802,2.5837,2.5858,2.5893,2.5923,2.5979,2.6,2.6034,2.6036,2.6061,2.6041,2.6037,2.6037,2.6036,2.6039,2.6065,2.6065,2.6066,2.6066,0,2.5672,2.5679,2.5709,2.5742,2.5767,2.5793,2.582,2.5835,2.5853,2.5878,2.5914,2.5936,2.5981,2.6017,2.6052,2.6069,2.6071,2.6072,2.608,2.6079,2.6072,2.6077,2.6002,2.6071,2.607,2.607,2.607,2.6069,2.5711,2.5736,2.5764,2.5797,2.5818,2.5842,2.5868,2.5885,2.5915,2.5952,2.5958,2.5997,2.6025,2.6072,2.609,2.6121,2.6115,2.6126,2.6129,2.6132,2.6134,2.6066,2.6127,2.6127,2.6127,2.6127,2.6127,0,2.5769,2.5787,2.5817,2.5853,2.588,2.5878,2.5907,2.5929,2.5963,2.5988,2.6017,2.6059,2.6093,2.6116,2.6151,2.6171,2.6173,2.618,2.6179,2.6183,2.6137,2.6127,2.6178,2.6178,2.6178,2.6178,2.6178,2.6178,2.5802,2.5844,2.5854,2.5906,2.5924,2.5962,2.5978,2.6001,2.6021,2.6067,2.6096,2.611,2.6135,2.6171,2.6203,2.6208,2.6222,2.6229,2.6235,2.6192,2.6186,2.6181,2.6172,2.6231,2.6231,2.6279,2.6279,2.6279]}]]